This is the latest recevied weather packets stored in our database for station/object WA6ODQ-13. If no packets are shown the sender has not sent any weather packets the latest 10 day(s).
| Time | Temp. | Humidity | Pressure | Rain* | Wind** | Luminosity | Snow |
|---|---|---|---|---|---|---|---|
| 1777817175 | 12.78° C | 80% | 1008.6 hPa | 0 mm | - | 38 W/m² | - |
| 1777816873 | 12.78° C | 80% | 1008.3 hPa | 0 mm | - | 28 W/m² | - |
| 1777816570 | 13.33° C | 78% | 1008.3 hPa | 0 mm | - | 23 W/m² | - |
| 1777816266 | 12.78° C | 79% | 1008.3 hPa | 0 mm | - | 20 W/m² | - |
| 1777815964 | 12.78° C | 80% | 1008.1 hPa | 0 mm | - | 16 W/m² | - |
| 1777815661 | 12.78° C | 81% | 1007.9 hPa | 0 mm | - | 13 W/m² | - |
| 1777815358 | 12.78° C | 80% | 1008 hPa | 0 mm | - | 9 W/m² | - |
| 1777815055 | 12.78° C | 80% | 1008 hPa | 0 mm | - | 6 W/m² | - |
| 1777814751 | 12.78° C | 80% | 1007.9 hPa | 0 mm | - | 4 W/m² | - |
| 1777814448 | 12.78° C | 81% | 1007.9 hPa | 0 mm | - | 3 W/m² | - |
| 1777814146 | 12.78° C | 81% | 1007.7 hPa | 0 mm | - | 2 W/m² | - |
| 1777813842 | 12.78° C | 82% | 1007.6 hPa | 0 mm | - | 1 W/m² | - |
| 1777813539 | 12.78° C | 81% | 1007.6 hPa | 0 mm | - | 1 W/m² | - |
| 1777813238 | 12.78° C | 81% | 1007.6 hPa | 0 mm | - | 0 W/m² | - |
| 1777812935 | 12.78° C | 82% | 1007.6 hPa | 0 mm | - | 0 W/m² | - |
| 1777812632 | 12.78° C | 82% | 1007.6 hPa | 0 mm | - | 0 W/m² | - |
| 1777812328 | 12.78° C | 82% | 1007.6 hPa | 0 mm | - | 0 W/m² | - |
| 1777812027 | 12.78° C | 82% | 1007.4 hPa | 0 mm | - | 0 W/m² | - |
| 1777811725 | 12.78° C | 83% | 1007.7 hPa | 0 mm | - | 0 W/m² | - |
| 1777811421 | 12.78° C | 82% | 1007.5 hPa | 0 mm | - | 0 W/m² | - |
| 1777811118 | 12.78° C | 83% | 1007.3 hPa | 0 mm | - | 0 W/m² | - |
| 1777810815 | 12.22° C | 83% | 1007.4 hPa | 0 mm | - | 0 W/m² | - |
| 1777810512 | 12.22° C | 83% | 1007.4 hPa | 0 mm | - | 0 W/m² | - |
| 1777810208 | 12.78° C | 83% | 1007.4 hPa | 0 mm | - | 0 W/m² | - |
| 1777809905 | 12.22° C | 83% | 1007.4 hPa | 0 mm | - | 0 W/m² | - |
* Rain latest hour (hover to see other rain measurements)
** Current wind speed in m/s (hover to see current wind gust speed)